Regional Weather Roundup
Issued by NWS

Home | Current Version | Previous Version | Text Only | Print | Product List | Glossary On
Versions: 1 2 3 4 5 6 7 8 9 10 11 12 13 14 15 16 17 18 19 20 21 22 23 24 25 26 27 28 29 30 31 32 33 34 35 36 37 38 39 40 41 42 43 44 45 46 47 48 49 50
846
ASUS42 KTBW 181017
RWRFL
FLORIDA REGIONAL WEATHER ROUNDUP
NATIONAL WEATHER SERVICE TAMPA BAY RUSKIN FL
500 AM EST WED JAN 18 2017

NOTE: "FAIR" INDICATES FEW OR NO CLOUDS BELOW 12,000 FEET WITH NO
SIGNIFICANT WEATHER AND/OR OBSTRUCTIONS TO VISIBILITY.

FLZ001>010-012>015-112-114-115-181100-
PANHANDLE FLORIDA

CITY           SKY/WX    TMP DP  RH WIND       PRES   REMARKS
PENSACOLA      FOG       66  64  93 CALM      30.13F VSB 1/4
PENSACOLA NAS  FOG       66  65  96 CALM      30.13F VSB<1/4
MILTON NAS       N/A    N/A N/A N/A MISG      30.14F
CRESTVIEW      FOG       63  62  97 CALM      30.16F VSB 1/4
DUKE FIELD     FOG       63  63 100 CALM      30.14S VSB 1/4
VALPARAISO     FOG       64  64 100 CALM      30.14S VSB 1/4
MARY ESTHER    FOG       67  62  85 CALM      30.12F VSB 1/4
PANAMA CITY    FOG       66  66 100 S5        30.14F VSB 1/4
TYNDALL AFB    FOG       66  66 100 CALM      30.15S VSB 1/2
APALACHICOLA   CLOUDY    62  62 100 CALM      30.15S

STATION/POSITION SKY/WX   TEMP    WIND        PRES    WAVE   SWELL
                          AIR SEA DIR/SP/G            HT/PER HT/PER
                          (F)     (DEG/KT/KT) (MB)    (FT/S) (FT/S)
30.1N   87.6W              66 64   60/  4/  4 1020.5    3/ 7   2/ 7
28.8N   86.0W              73 75              1020.4F   3/ 7   3/ 7
PANAMA CITY BEAC           65 65  120/  8/  9 1021.0F
TOWER C                    69     160/  7/  7 1021.2F
28.5N   84.5W              72 73  130/  6/  6 1020.7F   2/ 6   2/ 6

$$
FLZ011-016>038-118-127-128-134-139-239-181100-
NORTH FLORIDA

CITY           SKY/WX    TMP DP  RH WIND       PRES   REMARKS
MARIANNA       FOG       63  63 100 S5        30.14F VSB 1/4
TALLAHASSEE    FOG       60  60 100 CALM      30.16S VSB 1/4
PERRY          FOG       53  53  97 CALM      30.16S VSB 1/4
CROSS CITY     PTCLDY    50  50 100 CALM      30.15F
LAKE CITY      FOG       52  52 100 CALM      30.15F VSB 1/4
GAINESVILLE    PTCLDY    54  52  93 CALM      30.16F FOG
WILLISTON      FOG       55  54  94 CALM      30.17S VSB 1/2
PALATKA        MOCLDY    50  50 100 CALM      30.16F
MAYPORT NAS    CLEAR     61  59  93 W5        30.15S
JACKSONVILLE   CLOUDY    51  51 100 CALM      30.14F
JAX NAS        CLOUDY    60  58  92 W7        30.16S
FERNANDINA BEA FAIR      61  59  94 CALM      30.13S
ST AUGUSTINE   CLOUDY    61  58  90 SW6       30.16F

STATION/POSITION SKY/WX   TEMP    WIND        PRES    WAVE   SWELL
                          AIR SEA DIR/SP/G            HT/PER HT/PER
                          (F)     (DEG/KT/KT) (MB)    (FT/S) (FT/S)
SHELL POINT      NOT AVBL
KEATON BEACH               62     130/  2/  2 1020.7F
CEDAR KEY                  64      CALM  /  1 1022.0F
FERNANDINA                 61 64   CALM  /  3 1021.4F
30.7N   81.3W                 61                N/A     2/ 5
MAYPORT          NOT AVBL
31.4N   80.9W              62 59  230/ 10/ 10 1019.9F   2/10   2/10
ST AUGUSTINE               62 62  250/  7/  7 1021.6F

$$
FLZ040-043>046-052-053-057-058-063-144-181100-
INTERIOR CENTRAL FLORIDA

CITY           SKY/WX    TMP DP  RH WIND       PRES   REMARKS
OCALA          MOCLDY    54  50  87 CALM      30.16F
THE VILLAGES     N/A     57  57 100 CALM      30.07F
LEESBURG       MOCLDY    59  57  93 CALM      30.17F
SANFORD        PTCLDY    62  59  90 CALM      30.16F
ORLANDO EXEC   CLOUDY    61  60  97 S3        30.16F
ORLANDO INTL   CLOUDY    61  58  90 CALM      30.17S
KISSIMMEE      CLOUDY    59  58  96 CALM      30.18S
WINTER HAVEN   CLOUDY    63  59  87 SW3       30.18S
BARTOW         FAIR      57 N/A N/A CALM      30.18S
OKEECHOBEE     FOG       52  52 100 CALM      30.17F VSB 1/2

$$
FLZ041-047-054-059-064-141-147-181100-
EAST CENTRAL FLORIDA

CITY           SKY/WX    TMP DP  RH WIND       PRES   REMARKS
DAYTONA BEACH  FOG       57  57 100 CALM      30.16F VSB 3/4
DELAND         CLOUDY    55  55 100 CALM      30.17R FOG
JFK SPACE CTR  CLEAR     63  61  95 SW6       30.15S
CAPE CANAVERAL CLEAR     62  58  88 W6        30.15S FOG
PATRICK AFB    CLEAR     65  62  89 SW7       30.15F
MELBOURNE      PTCLDY    61  59  93 SW3       30.16F
VERO BEACH     CLEAR     60  57  89 W3        30.16F
FT PIERCE      CLEAR     57  56  96 CALM      30.16F
STUART         CLEAR     63  61  94 CALM      30.17F

STATION/POSITION SKY/WX   TEMP    WIND        PRES    WAVE   SWELL
                          AIR SEA DIR/SP/G            HT/PER HT/PER
                          (F)     (DEG/KT/KT) (MB)    (FT/S) (FT/S)
TRIDENT PIER               67 68  240/  6/  8 1021.2F
28.4N   80.5W                 70                N/A     2/11
27.5N   80.2W                 75                N/A     2/10

$$
FLZ050-056-061-142-242-148-248-149-249-151-251-155-255-
160-260-181100-
WEST CENTRAL FLORIDA

CITY           SKY/WX    TMP DP  RH WIND       PRES   REMARKS
CRYSTAL RIVER  FAIR      54  52  94 CALM      30.16F
INVERNESS      FAIR      54  54 100 CALM      30.17S
BROOKSVILLE      N/A    N/A N/A N/A MISG        N/A
CLEARWATER AIR FAIR      59  59 100 CALM      30.17F
ST PETE CLEARW CLOUDY    62  61  96 CALM      30.17F
TAMPA INTL     CLOUDY    63  60  90 CALM      30.17F
TAMPA EXEC     FOG       55  54  94 CALM      30.18F VSB 1/2
PLANT CITY       N/A     59  59 100 CALM      30.19F FOG
MACDILL AFB    PTCLDY    57  56  99 CALM      30.17S
PETER O KNIGHT MOCLDY    63  63 100 CALM      30.17F
ST PETERSBURG  CLOUDY    65  63  93 CALM      30.16S
SARASOTA       CLEAR     58  56  93 CALM      30.16S
VENICE         FAIR      61  61 100 NE5       30.18R

STATION/POSITION SKY/WX   TEMP    WIND        PRES    WAVE   SWELL
                          AIR SEA DIR/SP/G            HT/PER HT/PER
                          (F)     (DEG/KT/KT) (MB)    (FT/S) (FT/S)
27.3N   84.2W                 78                N/A     2/ 6
CLEARWATER BEACH           66 66   90/  5/  6 1021.8F
MIDDLE TAMPA BAY           65      20/  1/  2 1021.9F
VENICE                     66 67   60/  7/  7 1021.3F

$$
FLZ066-069-070-075>078-162-262-165-265-181100-
SOUTHWEST FLORIDA AND KEYS

CITY           SKY/WX    TMP DP  RH WIND       PRES   REMARKS
PUNTA GORDA    FOG       55  55 100 CALM      30.18S VSB 1
FT MYERS       CLEAR     62  60  93 CALM      30.15F
SOUTHWEST INTL CLEAR     60  57  89 CALM      30.16F
NAPLES         CLEAR     63  60  90 CALM      30.16R
MARCO ISLAND   PTCLDY    59  55  88 CALM      30.15F
MARATHON       MOCLDY    77  65  66 E6        30.14F
KEY WEST NAS   PTCLDY    74  64  71 SE9       30.14S
KEY WEST INTL  PTCLDY    75  67  76 SE12      30.14F

STATION/POSITION SKY/WX   TEMP    WIND        PRES    WAVE   SWELL
                          AIR SEA DIR/SP/G            HT/PER HT/PER
                          (F)     (DEG/KT/KT) (MB)    (FT/S) (FT/S)
NAPLES                        69              1021.1R
26.0N   85.6W              74 75  120/ 12/ 14 1020.7S   3/ 7   2/ 7
DRY TORTUGAS               73     100/ 16/ 18 1019.8F
SAND KEY                   75     140/ 17/ 19 1020.8F
LONG KEY                   74 72  130/  8/  9 1021.3F

$$
FLZ067-068-071>074-168-172>174-181100-
SOUTHEAST FLORIDA

CITY           SKY/WX    TMP DP  RH WIND       PRES   REMARKS
W PALM BEACH   PTCLDY    61  59  93 CALM      30.17S
FT LAUDER-EXEC PTCLDY    63  60  90 CALM      30.15F
FT LAUDERDALE  PTCLDY    69  61  75 SE6       30.15F
POMPANO BEACH  CLEAR     71  60  68 SE3       30.16S
PEMBROKE PINES PTCLDY    62  59  90 CALM      30.17F
OPA LOCKA      CLEAR     64  61  90 CALM      30.17S
MIAMI          PTCLDY    72  63  73 SE6       30.16F
WEST KENDALL   CLEAR     63  61  93 CALM      30.16F
HOMESTEAD      PTCLDY    63  63 100 CALM      30.16S

STATION/POSITION SKY/WX   TEMP    WIND        PRES    WAVE   SWELL
                          AIR SEA DIR/SP/G            HT/PER HT/PER
                          (F)     (DEG/KT/KT) (MB)    (FT/S) (FT/S)
PORT EVERGLADES            74     130/  7/ 10 1021.1F
VIRGINIA KEY               74 78  130/  7/  9 1021.7F
LAKE WORTH                 74 75  170/ 10/ 11 1021.0F
FOWEY ROCKS                74 75  100/ 11/ 12 1021.9F

$$





USA.gov is the U.S. government's official web portal to all federal, state and local government web resources and services.